TimeEDT,TemperatureF,Dew PointF,Humidity,Sea Level PressureIn,VisibilityMPH,Wind Direction,Wind SpeedMPH,Gust SpeedMPH,PrecipitationIn,Events,Conditions,WindDirDegrees,DateUTC
12:11 AM,53.6,51.8,94,30.19,1.8,Calm,Calm,-,N/A,,Clear,0,2013-10-03 04:11:00
12:22 AM,51.8,51.8,100,30.19,3.0,Calm,Calm,-,N/A,,Clear,0,2013-10-03 04:22:00
12:51 AM,52.0,51.1,97,30.18,2.0,Calm,Calm,-,N/A,,Mostly Cloudy,0,2013-10-03 04:51:00
1:04 AM,51.8,50.0,94,30.18,1.2,Calm,Calm,-,N/A,,Overcast,0,2013-10-03 05:04:00
1:13 AM,51.8,50.0,94,30.18,0.8,Calm,Calm,-,N/A,,Mist,0,2013-10-03 05:13:00
1:25 AM,51.8,50.0,94,30.18,1.0,Calm,Calm,-,N/A,,Mist,0,2013-10-03 05:25:00
1:33 AM,51.8,50.0,94,30.18,0.8,Calm,Calm,-,N/A,,Mist,0,2013-10-03 05:33:00
1:51 AM,52.0,50.0,93,30.18,0.8,Calm,Calm,-,N/A,,Mist,0,2013-10-03 05:51:00
2:39 AM,51.8,50.0,94,30.19,1.0,Calm,Calm,-,N/A,,Mist,0,2013-10-03 06:39:00
2:47 AM,51.8,50.0,94,30.19,0.5,Calm,Calm,-,N/A,Fog,Fog,0,2013-10-03 06:47:00
2:51 AM,52.0,50.0,93,30.18,0.5,Calm,Calm,-,N/A,Fog,Fog,0,2013-10-03 06:51:00
3:10 AM,51.8,51.8,100,30.19,0.2,Calm,Calm,-,N/A,Fog,Fog,0,2013-10-03 07:10:00
3:23 AM,51.8,50.0,94,30.18,0.5,Calm,Calm,-,N/A,Fog,Fog,0,2013-10-03 07:23:00
3:51 AM,52.0,51.1,97,30.18,0.5,Calm,Calm,-,N/A,Fog,Fog,0,2013-10-03 07:51:00
4:31 AM,51.8,50.0,94,30.19,1.0,Calm,Calm,-,N/A,,Mist,0,2013-10-03 08:31:00
4:51 AM,52.0,51.1,97,30.18,1.2,Calm,Calm,-,N/A,,Overcast,0,2013-10-03 08:51:00
5:05 AM,51.8,51.8,100,30.19,1.8,Calm,Calm,-,N/A,,Overcast,0,2013-10-03 09:05:00
5:31 AM,51.8,50.0,94,30.19,2.0,Calm,Calm,-,N/A,,Mostly Cloudy,0,2013-10-03 09:31:00
5:39 AM,51.8,50.0,94,30.19,1.8,Calm,Calm,-,N/A,,Mostly Cloudy,0,2013-10-03 09:39:00
5:51 AM,52.0,50.0,93,30.19,1.0,Calm,Calm,-,N/A,,Overcast,0,2013-10-03 09:51:00
6:11 AM,51.8,50.0,94,30.20,0.8,Calm,Calm,-,N/A,,Mist,0,2013-10-03 10:11:00
6:46 AM,51.8,50.0,94,30.20,1.8,Calm,Calm,-,N/A,,Overcast,0,2013-10-03 10:46:00
6:51 AM,52.0,50.0,93,30.20,1.5,Calm,Calm,-,N/A,,Overcast,0,2013-10-03 10:51:00
7:04 AM,51.8,51.8,100,30.20,0.5,Calm,Calm,-,N/A,Fog,Fog,0,2013-10-03 11:04:00
7:21 AM,51.8,51.8,100,30.20,0.2,Calm,Calm,-,N/A,Fog,Fog,0,2013-10-03 11:21:00
7:51 AM,52.0,51.1,97,30.21,0.2,Calm,Calm,-,N/A,Fog,Fog,0,2013-10-03 11:51:00
8:30 AM,53.6,51.8,94,30.21,0.5,Calm,Calm,-,N/A,Fog,Fog,0,2013-10-03 12:30:00
8:51 AM,54.0,52.0,93,30.22,1.2,Calm,Calm,-,N/A,,Overcast,0,2013-10-03 12:51:00
9:08 AM,53.6,53.6,100,30.21,3.0,Calm,Calm,-,N/A,,Mostly Cloudy,0,2013-10-03 13:08:00
9:22 AM,55.4,53.6,94,30.22,2.5,Calm,Calm,-,N/A,,Mostly Cloudy,0,2013-10-03 13:22:00
9:32 AM,55.4,53.6,94,30.22,2.5,Calm,Calm,-,N/A,,Partly Cloudy,0,2013-10-03 13:32:00
9:42 AM,55.4,53.6,94,30.22,4.0,Calm,Calm,-,N/A,,Partly Cloudy,0,2013-10-03 13:42:00
9:51 AM,57.9,55.0,90,30.22,8.0,Calm,Calm,-,N/A,,Partly Cloudy,0,2013-10-03 13:51:00
10:51 AM,64.0,57.0,78,30.21,10.0,Calm,Calm,-,N/A,,Clear,0,2013-10-03 14:51:00
11:51 AM,71.1,59.0,66,30.17,10.0,Calm,Calm,-,N/A,,Clear,0,2013-10-03 15:51:00
12:51 PM,73.9,60.1,62,30.16,10.0,Calm,Calm,-,N/A,,Clear,0,2013-10-03 16:51:00
1:51 PM,78.1,57.9,50,30.12,10.0,Calm,Calm,-,N/A,,Clear,0,2013-10-03 17:51:00
2:51 PM,80.1,59.0,48,30.11,10.0,NW,3.5,-,N/A,,Clear,310,2013-10-03 18:51:00
3:51 PM,78.1,57.0,48,30.10,10.0,Calm,Calm,-,N/A,,Clear,0,2013-10-03 19:51:00
4:51 PM,79.0,60.1,52,30.09,10.0,NW,6.9,-,N/A,,Clear,320,2013-10-03 20:51:00
5:51 PM,73.9,61.0,64,30.10,10.0,Calm,Calm,-,N/A,,Clear,0,2013-10-03 21:51:00
6:51 PM,72.0,62.1,71,30.11,10.0,Calm,Calm,-,N/A,,Scattered Clouds,0,2013-10-03 22:51:00
7:51 PM,68.0,62.1,81,30.13,10.0,Calm,Calm,-,N/A,,Mostly Cloudy,0,2013-10-03 23:51:00
8:51 PM,66.9,62.1,84,30.14,10.0,Calm,Calm,-,N/A,,Overcast,0,2013-10-04 00:51:00
9:51 PM,66.9,62.1,84,30.14,10.0,Calm,Calm,-,N/A,,Overcast,0,2013-10-04 01:51:00
10:51 PM,63.0,60.1,90,30.14,10.0,Calm,Calm,-,N/A,,Clear,0,2013-10-04 02:51:00
11:51 PM,61.0,59.0,93,30.14,10.0,Calm,Calm,-,N/A,,Clear,0,2013-10-04 03:51:00